Terminal Aerodrome Forecast
Issued by NWS Raleigh/Durham, NC

Home | Current Version | Previous Version | Text Only | Print | Product List | Glossary On
Versions: 1 2 3 4 5 6 7 8 9 10 11 12 13 14 15 16 17 18 19 20 21 22 23 24 25 26 27 28 29 30 31 32 33 34 35 36 37 38 39 40 41 42 43 44 45 46 47 48 49 50
000
FTUS42 KRAH 010746 AAA
TAFRDU
TAF AMD
KRDU 010746Z 0108/0206 17005KT 6SM BR OVC005
      TEMPO 0108/0110 2SM BR VV002
     FM011000 17003KT 1SM BR BKN002
     FM011300 12004KT P6SM SCT010 SCT040
     FM011500 18007KT P6SM BKN045
     FM020300 VRB02KT 2SM BR SCT003=

USA.gov is the U.S. government's official web portal to all federal, state and local government web resources and services.